Location: *
(2.5500°S, 65.9667°W)
Time: 02:16:48
(UTC+00:00)

ISS - Visible Passes

Search period start: 28 February 2024 00:00
Search period end: 09 March 2024 00:00
Orbit: 414 x 422 km, 51.6° (Epoch: 27 February)

Date Brightness Start Highest point End Pass type
(mag) Time Alt. Az. Time Alt. Az. Time Alt. Az.
05 Mar -2.0 23:57:01 10° SSW 23:58:34 22° S 23:58:34 22° S visible
06 Mar -1.8 23:09:53 10° SSE 23:11:54 15° SE 23:13:18 12° E visible
07 Mar -0.2 00:46:13 10° W 00:46:17 10° W 00:46:17 10° W visible
07 Mar -2.5 23:57:09 10° SW 00:00:17 38° NW 00:01:09 31° NNW visible
08 Mar -3.9 23:08:43 10° SSW 23:12:03 79° SE 23:15:22 10° NE visible
